Location: Southlake
(32.9412°N, 97.1342°W)
Time: 07:56:34
(UTC+00:00)

OE (NEXTSAT) - Pass Details

Date: 03 December 2021
Orbit: 416 x 425 km, 46.0° (Epoch: 26 January)

Event Time Altitude Azimuth Distance (km) Brightness Sun altitude
Exits shadow 12:10:59 23° 305° (NW) 937 5.4 -13.3°
Maximum altitude 12:12:57 87° 213° (SSW) 427 4.2 -12.9°
Drops below altitude 10° 12:16:21 10° 127° (SE) 1,508 8.3 -12.3°
Sets 12:18:28 0° 127° (SE) 2,373 9.6 -11.8°
